[ ตารางข้อมูล ] [ Min-Max ] [ วันนี้2 ] [ วันนี้4 ] [ เทียบ-A 3วัน ] [ เทียบ-B 4วัน ]   

วันนี้2   [ ◀ ช่วงเก่ากว่า ] [ ช่วงที่ 40 ] [ ช่วงใหม่กว่า ▶ ] [ ล่าสุด ]    [ 3 ชั่วโมง ] [ 6 ชั่วโมง ] [ 12 ชั่วโมง ] [ 24 ชั่วโมง ]   วันนี้2

อุณภูมิในตู้ Knockdown4529  ราย 6 ชั่วโมง  ที่วัดได้ ในช่วงวันเวลา 22/08/2026 (18:47) ถึง 23/08/2026 (00:47) 
ความชื้นในตู้ Knockdown4529  ราย 6 ชั่วโมง  ที่วัดได้ ในช่วงวันเวลา 22/08/2026 (18:47) ถึง 23/08/2026 (00:47) 
การใช้ไฟฟ้าในตู้ Knockdown4529  ราย 6 ชั่วโมง  ที่วัดได้ ในช่วงวันเวลา 22/08/2026 (18:47) ถึง 23/08/2026 (00:47) 

  DS18B20SHTC3PZEM-004TWiFi 
IDDate d/m/Y & Timedata1
สูง
data2
ต่ำ
data3
นอก
temp
pcb
hum
pcb
VoltAmpWattrssiTime
 15111  23/08/2026 00:42:59  31.4  31.5  27.5  32.1  67.5  223.8  0.04  4.6  -78  00:42 
 15110  23/08/2026 00:38:15  31.4  31.6  27.6  32.2  67.4  223.9  0.04  4.6  -78  00:38 
 15109  23/08/2026 00:33:32  31.4  31.6  27.9  32.4  67.3  226.2  0.04  4.6  -79  00:33 
 15108  23/08/2026 00:28:49  31.4  31.6  27.9  32.3  67.3  226.1  0.04  4.6  -75  00:28 
 15107  23/08/2026 00:24:05  31.4  31.6  27.6  32.4  67.2  225.7  0.04  4.5  -78  00:24 
 15106  23/08/2026 00:19:22  31.5  31.7  27.9  32.3  67.3  225.9  0.04  4.6  -76  00:19 
 15105  23/08/2026 00:14:38  31.6  31.7  28.0  32.5  67.2  223.7  0.04  4.5  -75  00:14 
 15104  23/08/2026 00:09:54  31.6  31.8  28.3  32.7  67.2  227.3  0.04  4.5  -76  00:09 
 15103  23/08/2026 00:05:11  31.6  31.8  28.1  32.6  67.3  224.7  0.04  4.5  -76  00:05 
 15102  23/08/2026 00:00:28  31.6  31.8  28.2  32.6  67.2  226.6  0.04  4.5  -77  00:00 
 15101  22/08/2026 23:55:45  31.7  31.8  28.3  32.5  67.3  227.7  0.04  4.6  -80  23:55 
 15100  22/08/2026 23:51:01  31.7  31.8  28.3  32.7  67.3  225.8  0.04  4.5  -78  23:51 
 15099  22/08/2026 23:46:18  31.8  31.9  28.5  32.6  67.3  224.8  0.04  4.6  -76  23:46 
 15098  22/08/2026 23:41:34  31.8  31.9  28.4  32.7  67.2  226.8  0.04  4.6  -77  23:41 
 15097  22/08/2026 23:36:51  31.8  31.9  28.7  32.8  67.3  225.5  0.04  4.6  -76  23:36 
 15096  22/08/2026 23:32:07  31.8  31.9  28.7  32.8  67.2  223.7  0.04  4.5  -77  23:32 
 15095  22/08/2026 23:27:24  31.9  32.0  28.5  32.8  67.2  226.9  0.04  4.6  -79  23:27 
 15094  22/08/2026 23:22:40  31.9  32.0  28.6  32.8  67.2  223.1  0.04  4.5  -76  23:22 
 15093  22/08/2026 23:17:57  31.9  32.1  28.8  33.0  67.2  224.6  0.04  4.5  -75  23:17 
 15092  22/08/2026 23:13:13  31.9  32.1  29.0  32.9  67.1  223.0  0.04  4.6  -78  23:13 
 15091  22/08/2026 23:08:30  31.9  32.1  29.0  32.8  67.1  223.6  0.04  4.5  -77  23:08 
 15090  22/08/2026 23:03:46  31.9  32.1  28.8  33.0  67.1  225.8  0.04  4.5  -77  23:03 
 15089  22/08/2026 22:59:03  31.9  32.1  29.0  33.0  67.0  226.9  0.04  4.5  -75  22:59 
 15088  22/08/2026 22:54:19  32.0  32.2  29.0  33.0  66.9  227.3  0.04  4.5  -79  22:54 

Data every 5 minute.


ใช้เวลาประมวลผล 0.03547 วินาที